Vorticity
7 7 9 7 7 7 6 6 7 7 6 6 7 8 7 7 8 8 8 7 6 5
11 6 9 8 7 7 7 6 7 7 6 7 7 7 6 10 8 8 6 6 5 5
12 9 6 6 6 7 7 6 6 7 6 7 6 8 8 10 7 5 6 5 5 5
-25 -0 5 7 7 4 5 7 6 7 6 6 8 8 10 6 6 5 5 5 5 6
13 -8 -0 6 9 9 8 6 7 7 7 7 9 8 8 5 6 5 5 6 7 7
-4 10 6 6 6 7 6 5 6 7 8 8 7 9 5 5 5 5 7 6 7 8
5 5 3 3 6 7 6 7 7 7 8 8 8 5 6 5 6 7 7 8 6 6
8 6 6 6 9 7 6 7 7 9 7 8 7 6 5 6 7 8 7 6 6 6
7 6 7 9 6 6 7 7 9 8 7 7 5 6 6 7 7 6 7 7 5 2
9 8 9 7 8 7 7 8 7 7 6 5 6 7 8 6 7 7 7 3 4 6
9 10 6 6 7 7 8 8 7 6 6 7 7 7 7 6 7 6 3 6 5 7
8 7 7 8 7 8 9 7 6 7 7 7 6 6 7 6 4 5 5 3 9 1
7 7 8 7 7 8 7 7 8 7 6 6 6 7 6 4 5 5 4 10 3 7
7 7 7 8 9 7 7 7 7 6 6 6 6 5 5 5 6 5 8 3 5 12
Height
3065 3071 3078 3083 3089 3093 3097 3098 3101 3104 3105 3106 3107 3109 3106 3109 3106 3106 3105 3104 3103 3101
3061 3067 3075 3081 3087 3091 3094 3095 3098 3101 3103 3104 3104 3104 3103 3106 3103 3102 3101 3100 3098 3096
3058 3065 3072 3078 3084 3088 3090 3092 3095 3098 3100 3100 3101 3100 3102 3101 3099 3098 3097 3095 3094 3092
3055 3063 3073 3077 3081 3085 3085 3090 3091 3095 3095 3097 3098 3097 3099 3095 3095 3094 3093 3091 3089 3086
3056 3065 3070 3076 3079 3083 3082 3084 3090 3091 3092 3093 3094 3095 3093 3093 3091 3090 3089 3087 3084 3081
3058 3064 3068 3072 3074 3077 3081 3084 3086 3089 3090 3090 3091 3090 3090 3089 3088 3086 3085 3082 3079 3076
3057 3061 3067 3067 3073 3077 3080 3083 3085 3086 3087 3088 3087 3087 3087 3086 3083 3081 3079 3076 3073 3069
3055 3060 3065 3069 3073 3076 3078 3080 3082 3084 3084 3084 3084 3084 3083 3081 3079 3077 3074 3071 3066 3062
3053 3058 3063 3066 3069 3072 3075 3078 3079 3081 3081 3081 3081 3080 3079 3077 3075 3072 3069 3065 3060 3055
3053 3058 3060 3064 3068 3070 3073 3075 3076 3077 3078 3077 3077 3076 3075 3072 3070 3067 3063 3059 3053 3048
3052 3057 3059 3061 3066 3069 3072 3073 3073 3074 3074 3074 3074 3072 3070 3067 3064 3061 3056 3050 3043 3037
3050 3055 3060 3063 3065 3068 3069 3069 3071 3071 3071 3070 3069 3067 3065 3062 3059 3054 3049 3042 3035 3029
3051 3054 3058 3061 3064 3065 3066 3067 3068 3067 3066 3066 3064 3062 3059 3055 3051 3046 3041 3035 3027 3020
3052 3056 3058 3060 3062 3063 3064 3064 3064 3064 3063 3061 3059 3056 3052 3048 3042 3037 3032 3026 3019 3012